When you browse on this site, cookies collect data to enhance your experience and personalize the content and advertising you see.
Visit our Privacy Policy to learn more. By continuing to use the site, you agree to this use of cookies and data.
  • In Hungary
  • List of Countries
  • For 7 days
  • Water Temperature
  • Weather Map
  • News
  • Weather Widgets
  • user-avatar
    Login

    Hourly Weather Jhinjhak

    Today, 14 November, Thursday

    Time Temperature Precipitation Wind Pressure Humidity
    00:00 +25°C° 0 mm 1 mps 749 mmHg 36%
    01:00 +24°C° 0 mm 1 mps 748 mmHg 36%
    02:00 +24°C° 0 mm 1 mps 748 mmHg 37%
    03:00 +23°C° 0 mm 1 mps 748 mmHg 37%
    04:00 +23°C° 0 mm 1 mps 748 mmHg 38%
    05:00 +23°C° 0 mm 1 mps 748 mmHg 40%
    06:00 +23°C° 0 mm 1 mps 749 mmHg 39%
    07:00 +24°C° 0 mm 1 mps 750 mmHg 38%
    08:00 +25°C° 0 mm 1 mps 750 mmHg 36%
    09:00 +27°C° 0 mm 1 mps 750 mmHg 33%
    10:00 +28°C° 0 mm 1 mps 750 mmHg 30%
    11:00 +29°C° 0 mm 1 mps 750 mmHg 26%
    12:00 +30°C° 0 mm 1 mps 749 mmHg 25%
    13:00 +31°C° 0 mm 1 mps 748 mmHg 23%
    14:00 +29°C° 0 mm 0 mps 747 mmHg 22%
    15:00 +30°C° 0 mm 1 mps 747 mmHg 24%
    16:00 +29°C° 0 mm 1 mps 747 mmHg 26%
    17:00 +27°C° 0 mm 1 mps 747 mmHg 28%
    18:00 +27°C° 0 mm 1 mps 748 mmHg 29%
    19:00 +26°C° 0 mm 1 mps 748 mmHg 30%
    20:00 +25°C° 0 mm 1 mps 749 mmHg 30%
    21:00 +25°C° 0 mm 1 mps 749 mmHg 31%
    22:00 +24°C° 0 mm 1 mps 748 mmHg 32%
    23:00 +24°C° 0 mm 1 mps 748 mmHg 33%

    Tomorrow, 15 November, Friday

    Time Temperature Precipitation Wind Pressure Humidity
    00:00 +23°C° 0 mm 1 mps 748 mmHg 34%
    01:00 +23°C° 0 mm 1 mps 747 mmHg 36%
    02:00 +20°C° 0 mm 0 mps 747 mmHg 37%
    03:00 +20°C° 0 mm 0 mps 747 mmHg 38%
    04:00 +19°C° 0 mm 0 mps 747 mmHg 38%
    05:00 +19°C° 0 mm 0 mps 747 mmHg 39%
    06:00 +20°C° 0 mm 0 mps 748 mmHg 38%
    07:00 +21°C° 0 mm 0 mps 748 mmHg 37%
    08:00 +22°C° 0 mm 0 mps 749 mmHg 36%
    09:00 +26°C° 0 mm 1 mps 749 mmHg 32%
    10:00 +28°C° 0 mm 1 mps 749 mmHg 29%
    11:00 +30°C° 0 mm 1 mps 749 mmHg 26%
    12:00 +30°C° 0 mm 1 mps 748 mmHg 25%
    13:00 +29°C° 0 mm 0 mps 747 mmHg 24%
    14:00 +30°C° 0 mm 0 mps 746 mmHg 22%
    15:00 +28°C° 0 mm 0 mps 746 mmHg 25%
    16:00 +27°C° 0 mm 0 mps 746 mmHg 27%
    17:00 +25°C° 0 mm 0 mps 746 mmHg 30%
    18:00 +25°C° 0 mm 0 mps 746 mmHg 31%
    19:00 +24°C° 0 mm 0 mps 747 mmHg 31%
    20:00 +24°C° 0 mm 0 mps 747 mmHg 32%
    21:00 +23°C° 0 mm 0 mps 747 mmHg 33%
    22:00 +23°C° 0 mm 0 mps 747 mmHg 34%
    23:00 +22°C° 0 mm 0 mps 747 mmHg 35%

    Day after tomorrow, 16 November, Saturday

    Time Temperature Precipitation Wind Pressure Humidity
    00:00 +22°C° 0 mm 0 mps 747 mmHg 36%
    01:00 +21°C° 0 mm 0 mps 746 mmHg 37%
    02:00 +21°C° 0 mm 0 mps 746 mmHg 38%
    03:00 +23°C° 0 mm 1 mps 746 mmHg 39%
    04:00 +22°C° 0 mm 1 mps 746 mmHg 40%
    05:00 +22°C° 0 mm 1 mps 746 mmHg 41%
    06:00 +23°C° 0 mm 1 mps 747 mmHg 40%
    07:00 +24°C° 0 mm 1 mps 748 mmHg 39%
    08:00 +25°C° 0 mm 1 mps 748 mmHg 38%
    09:00 +27°C° 0 mm 1 mps 748 mmHg 35%
    10:00 +28°C° 0 mm 1 mps 748 mmHg 31%
    11:00 +30°C° 0 mm 1 mps 748 mmHg 28%
    12:00 +31°C° 0 mm 2 mps 748 mmHg 27%
    13:00 +31°C° 0 mm 2 mps 747 mmHg 26%
    14:00 +32°C° 0 mm 2 mps 746 mmHg 26%
    15:00 +31°C° 0 mm 2 mps 746 mmHg 29%
    16:00 +29°C° 0 mm 2 mps 746 mmHg 32%
    17:00 +28°C° 0 mm 2 mps 746 mmHg 36%
    18:00 +27°C° 0 mm 2 mps 747 mmHg 37%
    19:00 +26°C° 0 mm 2 mps 747 mmHg 39%
    20:00 +26°C° 0 mm 2 mps 748 mmHg 40%
    21:00 +25°C° 0 mm 2 mps 747 mmHg 42%
    22:00 +25°C° 0 mm 2 mps 747 mmHg 43%
    23:00 +24°C° 0 mm 2 mps 747 mmHg 44%

    17 November, Sunday

    Time Temperature Precipitation Wind Pressure Humidity
    00:00 +24°C° 0 mm 2 mps 747 mmHg 45%
    01:00 +22°C° 0 mm 3 mps 747 mmHg 46%
    02:00 +22°C° 0 mm 3 mps 747 mmHg 48%
    03:00 +22°C° 0 mm 3 mps 747 mmHg 50%
    04:00 +21°C° 0 mm 3 mps 747 mmHg 52%
    05:00 +21°C° 0 mm 3 mps 747 mmHg 54%
    06:00 +22°C° 0 mm 3 mps 747 mmHg 51%
    07:00 +23°C° 0 mm 4 mps 748 mmHg 49%
    08:00 +25°C° 0 mm 5 mps 749 mmHg 47%
    09:00 +27°C° 0 mm 5 mps 748 mmHg 42%
    10:00 +29°C° 0 mm 5 mps 748 mmHg 36%
    11:00 +32°C° 0 mm 6 mps 748 mmHg 31%
    12:00 +32°C° 0 mm 6 mps 747 mmHg 30%
    13:00 +33°C° 0 mm 6 mps 747 mmHg 29%
    14:00 +34°C° 0 mm 6 mps 746 mmHg 27%
    15:00 +32°C° 0 mm 5 mps 746 mmHg 31%
    16:00 +30°C° 0 mm 4 mps 746 mmHg 34%
    17:00 +28°C° 0 mm 3 mps 746 mmHg 37%
    18:00 +27°C° 0 mm 3 mps 746 mmHg 39%
    19:00 +26°C° 0 mm 3 mps 746 mmHg 41%
    20:00 +26°C° 0 mm 3 mps 747 mmHg 42%
    21:00 +25°C° 0 mm 3 mps 747 mmHg 43%
    22:00 +24°C° 0 mm 3 mps 747 mmHg 44%
    23:00 +24°C° 0 mm 3 mps 746 mmHg 44%

    18 November, Monday

    Time Temperature Precipitation Wind Pressure Humidity
    00:00 +22°C° 0 mm 3 mps 746 mmHg 44%
    01:00 +22°C° 0 mm 3 mps 746 mmHg 44%
    02:00 +22°C° 0 mm 3 mps 746 mmHg 43%
    03:00 +21°C° 0 mm 3 mps 746 mmHg 44%
    04:00 +21°C° 0 mm 3 mps 746 mmHg 45%
    05:00 +20°C° 0 mm 3 mps 746 mmHg 46%
    06:00 +21°C° 0 mm 3 mps 747 mmHg 45%
    07:00 +22°C° 0 mm 3 mps 748 mmHg 45%
    08:00 +22°C° 0 mm 4 mps 748 mmHg 44%
    09:00 +25°C° 0 mm 4 mps 748 mmHg 39%
    10:00 +27°C° 0 mm 4 mps 748 mmHg 34%
    11:00 +29°C° 0 mm 4 mps 748 mmHg 29%
    12:00 +30°C° 0 mm 5 mps 747 mmHg 28%
    13:00 +30°C° 0 mm 5 mps 747 mmHg 27%
    14:00 +32°C° 0 mm 5 mps 746 mmHg 25%
    15:00 +29°C° 0 mm 4 mps 746 mmHg 29%
    16:00 +28°C° 0 mm 4 mps 746 mmHg 32%
    17:00 +26°C° 0 mm 3 mps 745 mmHg 35%
    18:00 +26°C° 0 mm 3 mps 746 mmHg 36%
    19:00 +25°C° 0 mm 2 mps 746 mmHg 36%
    20:00 +24°C° 0 mm 2 mps 747 mmHg 37%
    21:00 +24°C° 0 mm 2 mps 747 mmHg 38%
    22:00 +23°C° 0 mm 2 mps 747 mmHg 38%
    23:00 +23°C° 0 mm 2 mps 747 mmHg 39%

    19 November, Tuesday

    Time Temperature Precipitation Wind Pressure Humidity
    00:00 +21°C° 0 mm 2 mps 746 mmHg 40%
    01:00 +21°C° 0 mm 2 mps 746 mmHg 41%
    02:00 +20°C° 0 mm 2 mps 746 mmHg 42%
    03:00 +20°C° 0 mm 2 mps 746 mmHg 43%
    04:00 +20°C° 0 mm 2 mps 746 mmHg 44%
    05:00 +19°C° 0 mm 2 mps 746 mmHg 45%
    06:00 +20°C° 0 mm 2 mps 746 mmHg 44%
    07:00 +22°C° 0 mm 1 mps 747 mmHg 42%
    08:00 +23°C° 0 mm 1 mps 748 mmHg 41%
    09:00 +25°C° 0 mm 2 mps 747 mmHg 37%
    10:00 +27°C° 0 mm 2 mps 747 mmHg 33%
    11:00 +29°C° 0 mm 2 mps 747 mmHg 29%
    12:00 +29°C° 0 mm 2 mps 747 mmHg 27%
    13:00 +30°C° 0 mm 3 mps 746 mmHg 25%
    14:00 +31°C° 0 mm 3 mps 745 mmHg 23%
    15:00 +29°C° 0 mm 3 mps 745 mmHg 26%
    16:00 +28°C° 0 mm 2 mps 745 mmHg 29%
    17:00 +26°C° 0 mm 2 mps 745 mmHg 32%
    18:00 +25°C° 0 mm 2 mps 745 mmHg 33%
    19:00 +25°C° 0 mm 2 mps 745 mmHg 33%
    20:00 +24°C° 0 mm 2 mps 746 mmHg 34%
    21:00 +24°C° 0 mm 2 mps 746 mmHg 35%
    22:00 +23°C° 0 mm 1 mps 746 mmHg 35%
    23:00 +23°C° 0 mm 1 mps 746 mmHg 35%
    Show more